Location: Austin
(30.3000°N, 97.7500°W)
Time: 10:26:45
(UTC-05:00)

IRS-1D - Pass Details

Date: 03 April 2024
Orbit: 738 x 814 km, 98.8° (Epoch: 22 April)

Event Time Altitude Azimuth Distance (km) Brightness Sun altitude
Rises 04:49:37 0° 16° (NNE) 3,197 7.3 -31.1°
Reaches altitude 10° 04:51:55 10° 20° (NNE) 2,278 6.5 -30.6°
Enters shadow 04:56:27 62° 72° (ENE) 854 3.8 -29.8°
